User: anonymous
Location: Vallejo Observatory
(38.1221°N, 122.2109°W)
Time: 05:42:41
(UTC-07:00)
Language:

MOS 1 Rocket - Orbit

View from above orbital plane
View from above orbital plane
View from above satellite
View from above satellite

Ground track
Ground track

The orbit data is extracted from the following two-line orbital elements,

1 17528U 87018B   14210.16058073  .00000211  00000-0  56616-4 0  4273
2 17528 097.4618 274.7373 0153502 001.9109 049.1731 14.50010113447083
Epoch (UTC): 29 July 2014 03:51:14
Eccentricity: 0.0153502
inclination: 97.4618°
perigee height: 616 km
apogee height: 834 km
right ascension of ascending node: 274.7373°
argument of perigee: 1.9109°
revolutions per day: 14.50010113
mean anomaly at epoch: 49.1731°
orbit number at epoch: 44708

The dashed part of the orbit path shows where the satellite is in the earth's shadow,  

DLR